Time,TemperatureF,DewpointF,PressureIn,WindDirection,WindDirectionDegrees,WindSpeedMPH,WindSpeedGustMPH,Humidity,HourlyPrecipIn,Conditions,Clouds,dailyrainin,SoftwareType,DateUTC
2013-03-25 00:09:00,51.4,30.2,24.98,SW,233,11.0,-999.0,44,-99.99,,,-99.99,dwt +perl,2013-03-25 07:09:00,
2013-03-25 00:14:00,51.5,30.3,24.97,SW,233,10.0,-999.0,44,-99.99,,,-99.99,dwt +perl,2013-03-25 07:14:00,
2013-03-25 00:19:00,51.5,29.2,24.98,SW,221,9.0,-999.0,42,-99.99,,,-99.99,dwt +perl,2013-03-25 07:19:00,
2013-03-25 00:24:00,51.5,29.2,24.97,SSW,212,11.0,-999.0,42,-99.99,,,-99.99,dwt +perl,2013-03-25 07:24:00,
2013-03-25 00:29:00,51.3,29.0,24.97,SW,218,10.0,-999.0,42,-99.99,,,-99.99,dwt +perl,2013-03-25 07:29:00,
2013-03-25 00:34:00,51.0,29.3,24.97,WSW,240,10.0,-999.0,43,-99.99,,,-99.99,dwt +perl,2013-03-25 07:34:00,
2013-03-25 00:39:00,51.2,28.9,24.97,SW,236,11.0,-999.0,42,-99.99,,,-99.99,dwt +perl,2013-03-25 07:39:00,
2013-03-25 00:44:00,51.4,29.1,24.97,WSW,237,9.0,-999.0,42,-99.99,,,-99.99,dwt +perl,2013-03-25 07:44:00,
2013-03-25 00:49:00,51.6,28.7,24.97,SW,230,12.0,-999.0,41,-99.99,,,-99.99,dwt +perl,2013-03-25 07:49:00,
2013-03-25 00:54:00,51.6,28.7,24.97,SW,232,12.0,-999.0,41,-99.99,,,-99.99,dwt +perl,2013-03-25 07:54:00,
2013-03-25 00:59:00,51.6,29.3,24.97,SW,221,12.0,-999.0,42,-99.99,,,-99.99,dwt +perl,2013-03-25 07:59:00,
2013-03-25 01:04:00,51.7,28.8,24.97,SW,234,14.0,-999.0,41,-99.99,,,-99.99,dwt +perl,2013-03-25 08:04:00,
2013-03-25 01:09:00,51.6,28.1,24.96,SW,229,9.0,-999.0,40,-99.99,,,-99.99,dwt +perl,2013-03-25 08:09:00,
2013-03-25 01:14:00,51.3,28.4,24.96,SSW,207,10.0,-999.0,41,-99.99,,,-99.99,dwt +perl,2013-03-25 08:14:00,
2013-03-25 01:24:00,51.7,28.2,24.96,SW,233,10.0,-999.0,40,-99.99,,,-99.99,dwt +perl,2013-03-25 08:24:00,
2013-03-25 01:29:00,51.4,27.3,24.96,SW,220,11.0,-999.0,39,-99.99,,,-99.99,dwt +perl,2013-03-25 08:29:00,
2013-03-25 01:34:00,51.4,27.9,24.96,SW,226,12.0,-999.0,40,-99.99,,,-99.99,dwt +perl,2013-03-25 08:34:00,
2013-03-25 01:39:00,51.4,27.9,24.96,SW,235,10.0,-999.0,40,-99.99,,,-99.99,dwt +perl,2013-03-25 08:39:00,
2013-03-25 01:49:00,51.3,28.4,24.96,SW,235,13.0,-999.0,41,-99.99,,,-99.99,dwt +perl,2013-03-25 08:49:00,
2013-03-25 01:54:00,51.5,28.0,24.96,WSW,237,14.0,-999.0,40,-99.99,,,-99.99,dwt +perl,2013-03-25 08:54:00,
2013-03-25 01:59:00,51.4,28.5,24.96,WSW,238,13.0,-999.0,41,-99.99,,,-99.99,dwt +perl,2013-03-25 08:59:00,
2013-03-25 02:04:00,51.6,27.5,24.96,SW,235,13.0,-999.0,39,-99.99,,,-99.99,dwt +perl,2013-03-25 09:04:00,
2013-03-25 02:09:00,51.6,27.5,24.96,WSW,239,10.0,-999.0,39,-99.99,,,-99.99,dwt +perl,2013-03-25 09:09:00,
2013-03-25 02:14:00,51.6,27.5,24.96,SW,234,9.0,-999.0,39,-99.99,,,-99.99,dwt +perl,2013-03-25 09:14:00,
2013-03-25 02:24:00,52.1,23.9,24.95,WSW,237,7.0,-999.0,33,-99.99,,,-99.99,dwt +perl,2013-03-25 09:24:00,
2013-03-25 02:29:00,52.3,24.1,24.95,SW,235,6.0,-999.0,33,-99.99,,,-99.99,dwt +perl,2013-03-25 09:29:00,
2013-03-25 02:34:00,52.6,20.4,24.95,WSW,239,7.0,-999.0,28,-99.99,,,-99.99,dwt +perl,2013-03-25 09:34:00,
2013-03-25 02:39:00,52.6,22.8,24.96,WSW,241,9.0,-999.0,31,-99.99,,,-99.99,dwt +perl,2013-03-25 09:39:00,
2013-03-25 02:49:00,52.7,18.8,24.95,WSW,247,10.0,-999.0,26,-99.99,,,-99.99,dwt +perl,2013-03-25 09:49:00,
2013-03-25 02:54:00,52.6,21.3,24.95,WSW,238,9.0,-999.0,29,-99.99,,,-99.99,dwt +perl,2013-03-25 09:54:00,
2013-03-25 02:59:00,52.5,20.4,24.95,WSW,244,10.0,-999.0,28,-99.99,,,-99.99,dwt +perl,2013-03-25 09:59:00,
2013-03-25 03:04:00,52.8,17.0,24.95,WSW,249,9.0,-999.0,24,-99.99,,,-99.99,dwt +perl,2013-03-25 10:04:00,
2013-03-25 03:09:00,53.1,16.3,24.95,WSW,253,7.0,-999.0,23,-99.99,,,-99.99,dwt +perl,2013-03-25 10:09:00,
2013-03-25 03:14:00,53.0,15.2,24.95,WSW,250,9.0,-999.0,22,-99.99,,,-99.99,dwt +perl,2013-03-25 10:14:00,
2013-03-25 03:19:00,52.8,18.9,24.95,WSW,258,8.0,-999.0,26,-99.99,,,-99.99,dwt +perl,2013-03-25 10:19:00,
2013-03-25 03:24:00,52.5,17.7,24.95,WSW,247,9.0,-999.0,25,-99.99,,,-99.99,dwt +perl,2013-03-25 10:24:00,
2013-03-25 03:29:00,52.6,16.9,24.95,WSW,250,7.0,-999.0,24,-99.99,,,-99.99,dwt +perl,2013-03-25 10:29:00,
2013-03-25 03:34:00,52.6,14.9,24.95,WSW,253,6.0,-999.0,22,-99.99,,,-99.99,dwt +perl,2013-03-25 10:34:00,
2013-03-25 03:39:00,52.6,17.8,24.94,WSW,250,9.0,-999.0,25,-99.99,,,-99.99,dwt +perl,2013-03-25 10:39:00,
2013-03-25 03:44:00,52.4,18.5,24.94,WSW,252,9.0,-999.0,26,-99.99,,,-99.99,dwt +perl,2013-03-25 10:44:00,
2013-03-25 03:49:00,52.2,16.5,24.94,WSW,245,9.0,-999.0,24,-99.99,,,-99.99,dwt +perl,2013-03-25 10:49:00,
2013-03-25 03:54:00,52.2,17.5,24.94,WSW,243,10.0,-999.0,25,-99.99,,,-99.99,dwt +perl,2013-03-25 10:54:00,
2013-03-25 04:04:00,52.0,17.3,24.94,WSW,240,12.0,-999.0,25,-99.99,,,-99.99,dwt +perl,2013-03-25 11:04:00,
2013-03-25 04:09:00,51.8,17.1,24.94,WSW,251,9.0,-999.0,25,-99.99,,,-99.99,dwt +perl,2013-03-25 11:09:00,
2013-03-25 04:14:00,51.7,17.0,24.94,WSW,249,11.0,-999.0,25,-99.99,,,-99.99,dwt +perl,2013-03-25 11:14:00,
2013-03-25 04:19:00,51.7,17.9,24.94,WSW,251,10.0,-999.0,26,-99.99,,,-99.99,dwt +perl,2013-03-25 11:19:00,
2013-03-25 04:29:00,51.9,16.3,24.94,WSW,249,12.0,-999.0,24,-99.99,,,-99.99,dwt +perl,2013-03-25 11:29:00,
2013-03-25 04:34:00,51.8,14.2,24.94,WSW,249,9.0,-999.0,22,-99.99,,,-99.99,dwt +perl,2013-03-25 11:34:00,
2013-03-25 04:39:00,51.8,16.2,24.94,WSW,249,12.0,-999.0,24,-99.99,,,-99.99,dwt +perl,2013-03-25 11:39:00,
2013-03-25 04:44:00,51.7,14.1,24.94,WSW,245,9.0,-999.0,22,-99.99,,,-99.99,dwt +perl,2013-03-25 11:44:00,
2013-03-25 04:49:00,51.6,15.0,24.94,WSW,253,10.0,-999.0,23,-99.99,,,-99.99,dwt +perl,2013-03-25 11:49:00,
2013-03-25 04:59:00,51.4,16.8,24.94,WSW,249,10.0,-999.0,25,-99.99,,,-99.99,dwt +perl,2013-03-25 11:59:00,
2013-03-25 05:04:00,51.3,16.7,24.94,WSW,257,7.0,-999.0,25,-99.99,,,-99.99,dwt +perl,2013-03-25 12:04:00,
2013-03-25 05:09:00,51.3,13.8,24.94,WSW,250,9.0,-999.0,22,-99.99,,,-99.99,dwt +perl,2013-03-25 12:09:00,
2013-03-25 05:14:00,51.4,13.9,24.94,WSW,249,9.0,-999.0,22,-99.99,,,-99.99,dwt +perl,2013-03-25 12:14:00,
2013-03-25 05:19:00,51.5,11.8,24.94,West,262,7.0,-999.0,20,-99.99,,,-99.99,dwt +perl,2013-03-25 12:19:00,
2013-03-25 05:24:00,51.5,11.8,24.94,WSW,242,11.0,-999.0,20,-99.99,,,-99.99,dwt +perl,2013-03-25 12:24:00,
2013-03-25 05:29:00,51.7,9.6,24.94,West,261,8.0,-999.0,18,-99.99,,,-99.99,dwt +perl,2013-03-25 12:29:00,
2013-03-25 05:34:00,51.6,9.5,24.94,West,264,8.0,-999.0,18,-99.99,,,-99.99,dwt +perl,2013-03-25 12:34:00,
2013-03-25 05:39:00,51.8,8.4,24.94,West,268,6.0,-999.0,17,-99.99,,,-99.99,dwt +perl,2013-03-25 12:39:00,
2013-03-25 05:44:00,51.9,5.7,24.94,West,272,7.0,-999.0,15,-99.99,,,-99.99,dwt +perl,2013-03-25 12:44:00,
2013-03-25 05:54:00,51.8,5.7,24.94,West,278,10.0,-999.0,15,-99.99,,,-99.99,dwt +perl,2013-03-25 12:54:00,
2013-03-25 05:59:00,51.7,7.0,24.94,WSW,250,9.0,-999.0,16,-99.99,,,-99.99,dwt +perl,2013-03-25 12:59:00,
2013-03-25 06:04:00,51.6,6.9,24.94,West,268,9.0,-999.0,16,-99.99,,,-99.99,dwt +perl,2013-03-25 13:04:00,
2013-03-25 06:09:00,51.6,5.5,24.94,West,278,10.0,-999.0,15,-99.99,,,-99.99,dwt +perl,2013-03-25 13:09:00,
2013-03-25 06:14:00,51.3,8.0,24.94,West,262,9.0,-999.0,17,-99.99,,,-99.99,dwt +perl,2013-03-25 13:14:00,
2013-03-25 06:24:00,50.9,10.1,24.94,West,279,9.0,-999.0,19,-99.99,,,-99.99,dwt +perl,2013-03-25 13:24:00,
2013-03-25 06:34:00,52.2,-13.1,24.94,WNW,301,10.0,-999.0,6,-99.99,,,-99.99,dwt +perl,2013-03-25 13:34:00,
2013-03-25 06:39:00,52.9,-20.5,24.95,WNW,295,10.0,-999.0,4,-99.99,,,-99.99,dwt +perl,2013-03-25 13:39:00,
2013-03-25 06:44:00,53.0,-20.4,24.95,NW,311,14.0,-999.0,4,-99.99,,,-99.99,dwt +perl,2013-03-25 13:44:00,
2013-03-25 06:49:00,53.2,-25.7,24.95,NW,304,8.0,-999.0,3,-99.99,,,-99.99,dwt +perl,2013-03-25 13:49:00,
2013-03-25 06:54:00,53.6,-25.4,24.95,WNW,299,12.0,-999.0,3,-99.99,,,-99.99,dwt +perl,2013-03-25 13:54:00,
2013-03-25 06:59:00,53.9,-32.6,24.95,West,279,11.0,-999.0,2,-99.99,,,-99.99,dwt +perl,2013-03-25 13:59:00,
2013-03-25 07:09:00,53.5,-32.8,24.95,NW,311,9.0,-999.0,2,-99.99,,,-99.99,dwt +perl,2013-03-25 14:09:00,
2013-03-25 07:14:00,53.7,-32.7,24.95,WNW,288,5.0,-999.0,2,-99.99,,,-99.99,dwt +perl,2013-03-25 14:14:00,
2013-03-25 07:24:00,53.6,-25.4,24.95,WNW,294,5.0,-999.0,3,-99.99,,,-99.99,dwt +perl,2013-03-25 14:24:00,
2013-03-25 07:29:00,53.1,-25.7,24.95,WNW,282,7.0,-999.0,3,-99.99,,,-99.99,dwt +perl,2013-03-25 14:29:00,
2013-03-25 07:34:00,52.8,-20.5,24.95,WNW,288,6.0,-999.0,4,-99.99,,,-99.99,dwt +perl,2013-03-25 14:34:00,
2013-03-25 07:39:00,52.6,-20.7,24.95,NW,306,12.0,-999.0,4,-99.99,,,-99.99,dwt +perl,2013-03-25 14:39:00,
2013-03-25 07:44:00,53.0,-25.8,24.96,NW,318,6.0,-999.0,3,-99.99,,,-99.99,dwt +perl,2013-03-25 14:44:00,
2013-03-25 07:49:00,53.3,-25.6,24.96,NW,315,10.0,-999.0,3,-99.99,,,-99.99,dwt +perl,2013-03-25 14:49:00,
2013-03-25 07:54:00,53.2,-20.3,24.96,NNW,332,8.0,-999.0,4,-99.99,,,-99.99,dwt +perl,2013-03-25 14:54:00,
2013-03-25 07:59:00,53.2,-16.0,24.96,NW,326,6.0,-999.0,5,-99.99,,,-99.99,dwt +perl,2013-03-25 14:59:00,
2013-03-25 08:04:00,53.0,-9.4,24.96,NNW,332,6.0,-999.0,7,-99.99,,,-99.99,dwt +perl,2013-03-25 15:04:00,
2013-03-25 08:09:00,52.8,-12.6,24.96,NW,324,7.0,-999.0,6,-99.99,,,-99.99,dwt +perl,2013-03-25 15:09:00,
2013-03-25 08:14:00,52.7,-9.6,24.96,NW,318,8.0,-999.0,7,-99.99,,,-99.99,dwt +perl,2013-03-25 15:14:00,
2013-03-25 08:19:00,52.5,-9.8,24.96,NW,316,8.0,-999.0,7,-99.99,,,-99.99,dwt +perl,2013-03-25 15:19:00,
2013-03-25 08:24:00,52.4,-9.9,24.96,North,349,8.0,-999.0,7,-99.99,,,-99.99,dwt +perl,2013-03-25 15:24:00,
2013-03-25 08:29:00,52.4,-7.2,24.96,NW,321,6.0,-999.0,8,-99.99,,,-99.99,dwt +perl,2013-03-25 15:29:00,
2013-03-25 08:39:00,52.6,-7.0,24.96,NW,313,4.0,-999.0,8,-99.99,,,-99.99,dwt +perl,2013-03-25 15:39:00,
2013-03-25 08:44:00,52.8,-2.2,24.97,WNW,297,3.0,-999.0,10,-99.99,,,-99.99,dwt +perl,2013-03-25 15:44:00,
2013-03-25 08:49:00,52.8,-2.2,24.96,NW,311,1.0,-999.0,10,-99.99,,,-99.99,dwt +perl,2013-03-25 15:49:00,
2013-03-25 08:54:00,52.8,-6.8,24.97,NW,304,6.0,-999.0,8,-99.99,,,-99.99,dwt +perl,2013-03-25 15:54:00,
2013-03-25 08:59:00,52.8,-0.2,24.97,WSW,253,2.0,-999.0,11,-99.99,,,-99.99,dwt +perl,2013-03-25 15:59:00,
2013-03-25 09:04:00,52.8,1.6,24.97,WNW,285,5.0,-999.0,12,-99.99,,,-99.99,dwt +perl,2013-03-25 16:04:00,
2013-03-25 09:09:00,53.0,-0.1,24.97,West,272,6.0,-999.0,11,-99.99,,,-99.99,dwt +perl,2013-03-25 16:09:00,
2013-03-25 09:14:00,53.2,-1.9,24.97,WNW,293,6.0,-999.0,10,-99.99,,,-99.99,dwt +perl,2013-03-25 16:14:00,
2013-03-25 09:19:00,53.1,6.7,24.97,WNW,283,3.0,-999.0,15,-99.99,,,-99.99,dwt +perl,2013-03-25 16:19:00,
2013-03-25 09:24:00,52.2,4.5,24.97,West,278,5.0,-999.0,14,-99.99,,,-99.99,dwt +perl,2013-03-25 16:24:00,
2013-03-25 09:34:00,50.5,7.3,24.97,WSW,249,8.0,-999.0,17,-99.99,,,-99.99,dwt +perl,2013-03-25 16:34:00,
2013-03-25 09:39:00,50.3,3.0,24.97,WSW,243,7.0,-999.0,14,-99.99,,,-99.99,dwt +perl,2013-03-25 16:39:00,
2013-03-25 09:44:00,50.3,4.4,24.97,West,271,8.0,-999.0,15,-99.99,,,-99.99,dwt +perl,2013-03-25 16:44:00,
2013-03-25 09:49:00,50.6,3.2,24.97,WSW,251,6.0,-999.0,14,-99.99,,,-99.99,dwt +perl,2013-03-25 16:49:00,
2013-03-25 09:59:00,51.5,2.3,24.98,West,270,4.0,-999.0,13,-99.99,,,-99.99,dwt +perl,2013-03-25 16:59:00,
2013-03-25 10:04:00,52.1,1.1,24.98,WNW,289,6.0,-999.0,12,-99.99,,,-99.99,dwt +perl,2013-03-25 17:04:00,
2013-03-25 10:09:00,52.8,1.6,24.98,WNW,293,5.0,-999.0,12,-99.99,,,-99.99,dwt +perl,2013-03-25 17:09:00,
2013-03-25 10:14:00,53.3,3.7,24.98,WNW,295,2.0,-999.0,13,-99.99,,,-99.99,dwt +perl,2013-03-25 17:14:00,
2013-03-25 10:19:00,53.8,4.1,24.98,WSW,252,3.0,-999.0,13,-99.99,,,-99.99,dwt +perl,2013-03-25 17:19:00,
2013-03-25 10:24:00,54.1,7.5,24.98,WSW,243,4.0,-999.0,15,-99.99,,,-99.99,dwt +perl,2013-03-25 17:24:00,
2013-03-25 10:29:00,54.1,2.7,24.99,NW,321,4.0,-999.0,12,-99.99,,,-99.99,dwt +perl,2013-03-25 17:29:00,
2013-03-25 10:34:00,53.9,5.8,24.98,WSW,258,7.0,-999.0,14,-99.99,,,-99.99,dwt +perl,2013-03-25 17:34:00,
2013-03-25 10:39:00,54.3,12.9,24.99,West,269,5.0,-999.0,19,-99.99,,,-99.99,dwt +perl,2013-03-25 17:39:00,
2013-03-25 10:44:00,54.4,4.6,24.99,NW,305,6.0,-999.0,13,-99.99,,,-99.99,dwt +perl,2013-03-25 17:44:00,
2013-03-25 10:49:00,54.8,13.4,24.99,West,271,4.0,-999.0,19,-99.99,,,-99.99,dwt +perl,2013-03-25 17:49:00,
2013-03-25 10:54:00,54.9,12.2,24.99,WNW,297,8.0,-999.0,18,-99.99,,,-99.99,dwt +perl,2013-03-25 17:54:00,
2013-03-25 10:59:00,54.7,9.4,24.99,WNW,285,0.0,-999.0,16,-99.99,,,-99.99,dwt +perl,2013-03-25 17:59:00,
2013-03-25 11:04:00,54.7,9.4,24.99,WNW,282,4.0,-999.0,16,-99.99,,,-99.99,dwt +perl,2013-03-25 18:04:00,
2013-03-25 11:14:00,55.7,11.6,24.99,WSW,239,5.0,-999.0,17,-99.99,,,-99.99,dwt +perl,2013-03-25 18:14:00,
2013-03-25 11:19:00,56.3,14.6,24.99,SW,215,2.0,-999.0,19,-99.99,,,-99.99,dwt +perl,2013-03-25 18:19:00,
2013-03-25 11:24:00,56.4,12.1,24.99,West,280,5.0,-999.0,17,-99.99,,,-99.99,dwt +perl,2013-03-25 18:24:00,
2013-03-25 11:29:00,56.0,9.0,24.99,SW,228,6.0,-999.0,15,-99.99,,,-99.99,dwt +perl,2013-03-25 18:29:00,
2013-03-25 11:34:00,55.2,6.9,24.99,SW,235,5.0,-999.0,14,-99.99,,,-99.99,dwt +perl,2013-03-25 18:34:00,
2013-03-25 11:39:00,55.4,7.0,24.99,West,273,3.0,-999.0,14,-99.99,,,-99.99,dwt +perl,2013-03-25 18:39:00,
2013-03-25 11:44:00,55.7,15.3,24.99,SW,229,3.0,-999.0,20,-99.99,,,-99.99,dwt +perl,2013-03-25 18:44:00,
2013-03-25 11:54:00,55.9,16.5,24.99,West,261,0.0,-999.0,21,-99.99,,,-99.99,dwt +perl,2013-03-25 18:54:00,
2013-03-25 11:59:00,56.7,18.3,24.99,WSW,241,0.0,-999.0,22,-99.99,,,-99.99,dwt +perl,2013-03-25 18:59:00,
2013-03-25 12:04:00,57.2,20.7,24.98,WSW,243,0.0,-999.0,24,-99.99,,,-99.99,dwt +perl,2013-03-25 19:04:00,
2013-03-25 12:09:00,57.8,20.2,24.98,WSW,243,0.0,-999.0,23,-99.99,,,-99.99,dwt +perl,2013-03-25 19:09:00,
2013-03-25 12:14:00,58.1,23.4,24.99,WSW,243,1.0,-999.0,26,-99.99,,,-99.99,dwt +perl,2013-03-25 19:14:00,
2013-03-25 12:19:00,58.4,20.8,24.98,WSW,243,2.0,-999.0,23,-99.99,,,-99.99,dwt +perl,2013-03-25 19:19:00,
2013-03-25 12:24:00,57.5,19.0,24.98,WSW,237,0.0,-999.0,22,-99.99,,,-99.99,dwt +perl,2013-03-25 19:24:00,
2013-03-25 12:29:00,57.0,16.3,24.98,WSW,237,0.0,-999.0,20,-99.99,,,-99.99,dwt +perl,2013-03-25 19:29:00,
2013-03-25 12:34:00,56.9,21.5,24.98,WSW,237,0.0,-999.0,25,-99.99,,,-99.99,dwt +perl,2013-03-25 19:34:00,
2013-03-25 12:39:00,57.5,23.8,24.98,SW,235,0.0,-999.0,27,-99.99,,,-99.99,dwt +perl,2013-03-25 19:39:00,
2013-03-25 12:44:00,58.3,24.5,24.98,SW,235,2.0,-999.0,27,-99.99,,,-99.99,dwt +perl,2013-03-25 19:44:00,
2013-03-25 12:49:00,59.2,24.3,24.98,SW,236,0.0,-999.0,26,-99.99,,,-99.99,dwt +perl,2013-03-25 19:49:00,
2013-03-25 12:54:00,59.9,27.6,24.98,SW,236,0.0,-999.0,29,-99.99,,,-99.99,dwt +perl,2013-03-25 19:54:00,
2013-03-25 12:59:00,60.5,27.2,24.98,SW,235,0.0,-999.0,28,-99.99,,,-99.99,dwt +perl,2013-03-25 19:59:00,
2013-03-25 13:04:00,60.9,28.4,24.97,SW,235,0.0,-999.0,29,-99.99,,,-99.99,dwt +perl,2013-03-25 20:04:00,
2013-03-25 13:09:00,60.9,27.6,24.97,WSW,240,1.0,-999.0,28,-99.99,,,-99.99,dwt +perl,2013-03-25 20:09:00,
2013-03-25 13:14:00,60.8,27.5,24.97,WSW,249,0.0,-999.0,28,-99.99,,,-99.99,dwt +perl,2013-03-25 20:14:00,
2013-03-25 13:19:00,60.8,28.3,24.97,WSW,249,1.0,-999.0,29,-99.99,,,-99.99,dwt +perl,2013-03-25 20:19:00,
2013-03-25 13:24:00,60.9,28.4,24.97,WSW,249,0.0,-999.0,29,-99.99,,,-99.99,dwt +perl,2013-03-25 20:24:00,
2013-03-25 13:29:00,61.1,28.6,24.97,WSW,237,0.0,-999.0,29,-99.99,,,-99.99,dwt +perl,2013-03-25 20:29:00,
2013-03-25 13:34:00,61.1,29.4,24.97,WSW,237,0.0,-999.0,30,-99.99,,,-99.99,dwt +perl,2013-03-25 20:34:00,
2013-03-25 13:39:00,61.4,30.5,24.96,SW,231,1.0,-999.0,31,-99.99,,,-99.99,dwt +perl,2013-03-25 20:39:00,
2013-03-25 13:44:00,60.9,29.3,24.97,SW,231,0.0,-999.0,30,-99.99,,,-99.99,dwt +perl,2013-03-25 20:44:00,
2013-03-25 13:49:00,60.5,30.5,24.96,SW,229,0.0,-999.0,32,-99.99,,,-99.99,dwt +perl,2013-03-25 20:49:00,
2013-03-25 13:54:00,60.6,31.3,24.96,SW,226,1.0,-999.0,33,-99.99,,,-99.99,dwt +perl,2013-03-25 20:54:00,
2013-03-25 13:59:00,60.5,31.2,24.96,WSW,241,1.0,-999.0,33,-99.99,,,-99.99,dwt +perl,2013-03-25 20:59:00,
2013-03-25 14:04:00,60.7,32.2,24.96,SW,216,0.0,-999.0,34,-99.99,,,-99.99,dwt +perl,2013-03-25 21:04:00,
2013-03-25 14:09:00,61.1,33.9,24.96,SW,216,0.0,-999.0,36,-99.99,,,-99.99,dwt +perl,2013-03-25 21:09:00,
2013-03-25 14:19:00,59.9,34.9,24.95,WNW,291,1.0,-999.0,39,-99.99,,,-99.99,dwt +perl,2013-03-25 21:19:00,
2013-03-25 14:24:00,58.8,37.5,24.95,SW,216,10.0,-999.0,45,-99.99,,,-99.99,dwt +perl,2013-03-25 21:24:00,
2013-03-25 14:29:00,58.7,39.1,24.95,SSW,203,8.0,-999.0,48,-99.99,,,-99.99,dwt +perl,2013-03-25 21:29:00,
2013-03-25 14:34:00,58.0,37.9,24.95,SSW,201,1.0,-999.0,47,-99.99,,,-99.99,dwt +perl,2013-03-25 21:34:00,
2013-03-25 14:39:00,57.6,37.0,24.95,SSW,201,3.0,-999.0,46,-99.99,,,-99.99,dwt +perl,2013-03-25 21:39:00,
2013-03-25 14:44:00,57.4,37.3,24.95,SW,231,1.0,-999.0,47,-99.99,,,-99.99,dwt +perl,2013-03-25 21:44:00,
2013-03-25 14:49:00,58.0,37.9,24.94,SW,231,4.0,-999.0,47,-99.99,,,-99.99,dwt +perl,2013-03-25 21:49:00,
2013-03-25 14:54:00,58.7,36.3,24.94,SW,231,0.0,-999.0,43,-99.99,,,-99.99,dwt +perl,2013-03-25 21:54:00,
2013-03-25 14:59:00,59.2,37.9,24.94,SW,228,0.0,-999.0,45,-99.99,,,-99.99,dwt +perl,2013-03-25 21:59:00,
2013-03-25 15:04:00,59.0,37.1,24.94,West,264,0.0,-999.0,44,-99.99,,,-99.99,dwt +perl,2013-03-25 22:04:00,
2013-03-25 15:09:00,58.4,36.6,24.94,WNW,286,4.0,-999.0,44,-99.99,,,-99.99,dwt +perl,2013-03-25 22:09:00,
2013-03-25 15:14:00,58.7,38.0,24.94,SSW,198,2.0,-999.0,46,-99.99,,,-99.99,dwt +perl,2013-03-25 22:14:00,
2013-03-25 15:19:00,57.9,37.2,24.94,WSW,245,6.0,-999.0,46,-99.99,,,-99.99,dwt +perl,2013-03-25 22:19:00,
2013-03-25 15:24:00,57.6,38.0,24.94,WSW,251,8.0,-999.0,48,-99.99,,,-99.99,dwt +perl,2013-03-25 22:24:00,
2013-03-25 15:29:00,57.5,36.3,24.93,West,264,2.0,-999.0,45,-99.99,,,-99.99,dwt +perl,2013-03-25 22:29:00,
2013-03-25 15:34:00,57.9,37.8,24.93,SSE,167,3.0,-999.0,47,-99.99,,,-99.99,dwt +perl,2013-03-25 22:34:00,
2013-03-25 15:39:00,58.1,38.0,24.93,WNW,283,4.0,-999.0,47,-99.99,,,-99.99,dwt +perl,2013-03-25 22:39:00,
2013-03-25 15:44:00,57.1,34.2,24.93,WNW,294,5.0,-999.0,42,-99.99,,,-99.99,dwt +perl,2013-03-25 22:44:00,
2013-03-25 15:49:00,56.4,35.9,24.93,West,276,7.0,-999.0,46,-99.99,,,-99.99,dwt +perl,2013-03-25 22:49:00,
2013-03-25 15:54:00,57.0,36.4,24.93,SW,230,2.0,-999.0,46,-99.99,,,-99.99,dwt +perl,2013-03-25 22:54:00,
2013-03-25 15:59:00,58.1,34.5,24.93,SSW,206,0.0,-999.0,41,-99.99,,,-99.99,dwt +perl,2013-03-25 22:59:00,
2013-03-25 16:04:00,58.2,34.6,24.93,SW,234,5.0,-999.0,41,-99.99,,,-99.99,dwt +perl,2013-03-25 23:04:00,
2013-03-25 16:09:00,58.6,35.6,24.93,SW,214,6.0,-999.0,42,-99.99,,,-99.99,dwt +perl,2013-03-25 23:09:00,
2013-03-25 16:14:00,58.1,34.5,24.93,SW,226,2.0,-999.0,41,-99.99,,,-99.99,dwt +perl,2013-03-25 23:14:00,
2013-03-25 16:19:00,58.3,35.3,24.93,SSW,204,8.0,-999.0,42,-99.99,,,-99.99,dwt +perl,2013-03-25 23:19:00,
2013-03-25 16:24:00,57.3,36.7,24.92,SSW,198,9.0,-999.0,46,-99.99,,,-99.99,dwt +perl,2013-03-25 23:24:00,
2013-03-25 16:29:00,56.4,38.0,24.92,WSW,248,11.0,-999.0,50,-99.99,,,-99.99,dwt +perl,2013-03-25 23:29:00,
2013-03-25 16:34:00,56.0,35.0,24.92,ENE,68,8.0,-999.0,45,-99.99,,,-99.99,dwt +perl,2013-03-25 23:34:00,
2013-03-25 16:39:00,54.6,35.8,24.92,WSW,242,11.0,-999.0,49,-99.99,,,-99.99,dwt +perl,2013-03-25 23:39:00,
2013-03-25 16:44:00,54.4,35.6,24.92,WSW,242,10.0,-999.0,49,-99.99,,,-99.99,dwt +perl,2013-03-25 23:44:00,
2013-03-25 16:49:00,53.6,36.4,24.92,SW,218,11.0,-999.0,52,-99.99,,,-99.99,dwt +perl,2013-03-25 23:49:00,
2013-03-25 16:54:00,54.0,35.3,24.92,WSW,239,12.0,-999.0,49,-99.99,,,-99.99,dwt +perl,2013-03-25 23:54:00,
2013-03-25 16:59:00,54.4,36.2,24.92,SW,218,9.0,-999.0,50,-99.99,,,-99.99,dwt +perl,2013-03-25 23:59:00,
2013-03-25 17:04:00,54.5,35.2,24.92,SW,227,6.0,-999.0,48,-99.99,,,-99.99,dwt +perl,2013-03-26 00:04:00,
2013-03-25 17:09:00,53.9,35.7,24.92,WSW,247,9.0,-999.0,50,-99.99,,,-99.99,dwt +perl,2013-03-26 00:09:00,
2013-03-25 17:14:00,53.9,35.7,24.92,WNW,287,7.0,-999.0,50,-99.99,,,-99.99,dwt +perl,2013-03-26 00:14:00,
2013-03-25 17:19:00,53.8,36.1,24.91,SW,219,6.0,-999.0,51,-99.99,,,-99.99,dwt +perl,2013-03-26 00:19:00,
2013-03-25 17:24:00,53.7,37.0,24.91,WSW,237,13.0,-999.0,53,-99.99,,,-99.99,dwt +perl,2013-03-26 00:24:00,
2013-03-25 17:29:00,52.9,36.2,24.91,SW,224,12.0,-999.0,53,-99.99,,,-99.99,dwt +perl,2013-03-26 00:29:00,
2013-03-25 17:34:00,53.0,37.7,24.91,South,191,8.0,-999.0,56,-99.99,,,-99.99,dwt +perl,2013-03-26 00:34:00,
2013-03-25 17:39:00,52.2,34.6,24.91,WSW,242,11.0,-999.0,51,-99.99,,,-99.99,dwt +perl,2013-03-26 00:39:00,
2013-03-25 17:44:00,51.5,37.2,24.91,SW,236,9.0,-999.0,58,-99.99,,,-99.99,dwt +perl,2013-03-26 00:44:00,
2013-03-25 17:49:00,51.3,37.5,24.91,WSW,257,7.0,-999.0,59,-99.99,,,-99.99,dwt +perl,2013-03-26 00:49:00,
2013-03-25 17:54:00,50.9,35.3,24.91,WSW,243,11.0,-999.0,55,-99.99,,,-99.99,dwt +perl,2013-03-26 00:54:00,
2013-03-25 17:59:00,50.8,36.6,24.91,WSW,245,10.0,-999.0,58,-99.99,,,-99.99,dwt +perl,2013-03-26 00:59:00,
2013-03-25 18:04:00,50.5,35.8,24.91,WSW,243,6.0,-999.0,57,-99.99,,,-99.99,dwt +perl,2013-03-26 01:04:00,
2013-03-25 18:09:00,50.1,33.6,24.91,WSW,248,7.0,-999.0,53,-99.99,,,-99.99,dwt +perl,2013-03-26 01:09:00,
2013-03-25 18:14:00,49.9,31.5,24.92,West,261,7.0,-999.0,49,-99.99,,,-99.99,dwt +perl,2013-03-26 01:14:00,
2013-03-25 18:19:00,49.8,32.4,24.92,SW,235,10.0,-999.0,51,-99.99,,,-99.99,dwt +perl,2013-03-26 01:19:00,
2013-03-25 18:24:00,49.5,34.5,24.91,WSW,239,9.0,-999.0,56,-99.99,,,-99.99,dwt +perl,2013-03-26 01:24:00,
2013-03-25 18:29:00,49.3,34.3,24.91,WSW,243,10.0,-999.0,56,-99.99,,,-99.99,dwt +perl,2013-03-26 01:29:00,
2013-03-25 18:34:00,49.3,29.9,24.91,WSW,237,9.0,-999.0,47,-99.99,,,-99.99,dwt +perl,2013-03-26 01:34:00,
2013-03-25 18:39:00,49.5,27.4,24.91,SW,233,5.0,-999.0,42,-99.99,,,-99.99,dwt +perl,2013-03-26 01:39:00,
2013-03-25 18:44:00,49.6,28.6,24.92,SSW,211,5.0,-999.0,44,-99.99,,,-99.99,dwt +perl,2013-03-26 01:44:00,
2013-03-25 18:49:00,49.7,26.4,24.92,SW,232,7.0,-999.0,40,-99.99,,,-99.99,dwt +perl,2013-03-26 01:49:00,
2013-03-25 18:54:00,49.8,26.5,24.92,SW,230,11.0,-999.0,40,-99.99,,,-99.99,dwt +perl,2013-03-26 01:54:00,
2013-03-25 18:59:00,49.8,25.2,24.92,SW,235,6.0,-999.0,38,-99.99,,,-99.99,dwt +perl,2013-03-26 01:59:00,
2013-03-25 19:04:00,49.8,24.6,24.92,WSW,251,5.0,-999.0,37,-99.99,,,-99.99,dwt +perl,2013-03-26 02:04:00,
2013-03-25 19:09:00,49.6,25.0,24.92,WSW,245,9.0,-999.0,38,-99.99,,,-99.99,dwt +perl,2013-03-26 02:09:00,
2013-03-25 19:14:00,49.5,25.0,24.92,WSW,248,7.0,-999.0,38,-99.99,,,-99.99,dwt +perl,2013-03-26 02:14:00,
2013-03-25 19:19:00,49.5,24.3,24.92,WSW,240,8.0,-999.0,37,-99.99,,,-99.99,dwt +perl,2013-03-26 02:19:00,
2013-03-25 19:24:00,49.3,24.1,24.92,SW,228,9.0,-999.0,37,-99.99,,,-99.99,dwt +perl,2013-03-26 02:24:00,
2013-03-25 19:29:00,49.1,25.8,24.92,WSW,238,9.0,-999.0,40,-99.99,,,-99.99,dwt +perl,2013-03-26 02:29:00,
2013-03-25 19:34:00,48.7,27.2,24.92,WSW,249,7.0,-999.0,43,-99.99,,,-99.99,dwt +perl,2013-03-26 02:34:00,
2013-03-25 19:39:00,48.2,29.9,24.92,WSW,250,9.0,-999.0,49,-99.99,,,-99.99,dwt +perl,2013-03-26 02:39:00,
2013-03-25 19:44:00,47.9,27.0,24.92,WSW,241,10.0,-999.0,44,-99.99,,,-99.99,dwt +perl,2013-03-26 02:44:00,
2013-03-25 19:49:00,47.8,26.4,24.92,West,266,6.0,-999.0,43,-99.99,,,-99.99,dwt +perl,2013-03-26 02:49:00,
2013-03-25 19:54:00,47.6,26.8,24.92,WSW,237,8.0,-999.0,44,-99.99,,,-99.99,dwt +perl,2013-03-26 02:54:00,
2013-03-25 19:59:00,47.4,27.7,24.92,WSW,253,8.0,-999.0,46,-99.99,,,-99.99,dwt +perl,2013-03-26 02:59:00,
2013-03-25 20:04:00,47.4,27.1,24.92,WSW,249,7.0,-999.0,45,-99.99,,,-99.99,dwt +perl,2013-03-26 03:04:00,
2013-03-25 20:09:00,47.4,26.0,24.92,WSW,249,7.0,-999.0,43,-99.99,,,-99.99,dwt +perl,2013-03-26 03:09:00,
2013-03-25 20:14:00,47.4,23.7,24.92,WSW,258,6.0,-999.0,39,-99.99,,,-99.99,dwt +perl,2013-03-26 03:14:00,
2013-03-25 20:19:00,47.6,23.3,24.92,WSW,241,8.0,-999.0,38,-99.99,,,-99.99,dwt +perl,2013-03-26 03:19:00,
2013-03-25 20:24:00,47.6,22.0,24.92,WSW,253,6.0,-999.0,36,-99.99,,,-99.99,dwt +perl,2013-03-26 03:24:00,
2013-03-25 20:29:00,47.8,22.1,24.92,WSW,245,9.0,-999.0,36,-99.99,,,-99.99,dwt +perl,2013-03-26 03:29:00,
2013-03-25 20:34:00,47.7,22.1,24.92,WSW,247,10.0,-999.0,36,-99.99,,,-99.99,dwt +perl,2013-03-26 03:34:00,
2013-03-25 20:39:00,48.1,20.4,24.93,WSW,238,14.0,-999.0,33,-99.99,,,-99.99,dwt +perl,2013-03-26 03:39:00,
2013-03-25 20:44:00,48.1,20.4,24.92,SW,231,13.0,-999.0,33,-99.99,,,-99.99,dwt +perl,2013-03-26 03:44:00,
2013-03-25 20:49:00,47.9,20.9,24.93,WSW,251,15.0,-999.0,34,-99.99,,,-99.99,dwt +perl,2013-03-26 03:49:00,
2013-03-25 20:54:00,47.8,21.5,24.93,WSW,239,12.0,-999.0,35,-99.99,,,-99.99,dwt +perl,2013-03-26 03:54:00,
2013-03-25 20:59:00,48.0,19.6,24.93,WSW,239,12.0,-999.0,32,-99.99,,,-99.99,dwt +perl,2013-03-26 03:59:00,
2013-03-25 21:04:00,48.3,19.8,24.93,SW,236,11.0,-999.0,32,-99.99,,,-99.99,dwt +perl,2013-03-26 04:04:00,
2013-03-25 21:09:00,48.5,20.0,24.93,WSW,247,11.0,-999.0,32,-99.99,,,-99.99,dwt +perl,2013-03-26 04:09:00,
2013-03-25 21:14:00,48.8,20.3,24.93,West,262,9.0,-999.0,32,-99.99,,,-99.99,dwt +perl,2013-03-26 04:14:00,
2013-03-25 21:19:00,48.8,20.3,24.94,West,263,6.0,-999.0,32,-99.99,,,-99.99,dwt +perl,2013-03-26 04:19:00,
2013-03-25 21:24:00,48.7,20.2,24.94,West,270,9.0,-999.0,32,-99.99,,,-99.99,dwt +perl,2013-03-26 04:24:00,
2013-03-25 21:29:00,48.9,18.8,24.94,WSW,248,10.0,-999.0,30,-99.99,,,-99.99,dwt +perl,2013-03-26 04:29:00,
2013-03-25 21:34:00,49.2,17.5,24.94,WSW,250,10.0,-999.0,28,-99.99,,,-99.99,dwt +perl,2013-03-26 04:34:00,
2013-03-25 21:39:00,49.1,18.2,24.94,WSW,254,7.0,-999.0,29,-99.99,,,-99.99,dwt +perl,2013-03-26 04:39:00,
2013-03-25 21:44:00,48.7,19.4,24.94,WSW,239,6.0,-999.0,31,-99.99,,,-99.99,dwt +perl,2013-03-26 04:44:00,
2013-03-25 21:49:00,48.5,15.2,24.94,WSW,253,9.0,-999.0,26,-99.99,,,-99.99,dwt +perl,2013-03-26 04:49:00,
2013-03-25 21:54:00,48.6,16.1,24.94,WSW,242,8.0,-999.0,27,-99.99,,,-99.99,dwt +perl,2013-03-26 04:54:00,
2013-03-25 21:59:00,48.4,16.8,24.94,WSW,249,7.0,-999.0,28,-99.99,,,-99.99,dwt +perl,2013-03-26 04:59:00,
2013-03-25 22:04:00,48.2,17.5,24.94,West,267,8.0,-999.0,29,-99.99,,,-99.99,dwt +perl,2013-03-26 05:04:00,
2013-03-25 22:09:00,48.1,18.1,24.94,West,268,7.0,-999.0,30,-99.99,,,-99.99,dwt +perl,2013-03-26 05:09:00,
2013-03-25 22:14:00,47.7,20.0,24.94,WSW,243,9.0,-999.0,33,-99.99,,,-99.99,dwt +perl,2013-03-26 05:14:00,
2013-03-25 22:19:00,47.0,22.1,24.95,WSW,239,8.0,-999.0,37,-99.99,,,-99.99,dwt +perl,2013-03-26 05:19:00,
2013-03-25 22:24:00,46.6,23.0,24.94,WSW,249,8.0,-999.0,39,-99.99,,,-99.99,dwt +perl,2013-03-26 05:24:00,
2013-03-25 22:29:00,46.7,21.8,24.94,WSW,237,12.0,-999.0,37,-99.99,,,-99.99,dwt +perl,2013-03-26 05:29:00,
2013-03-25 22:34:00,47.3,21.0,24.94,WSW,239,12.0,-999.0,35,-99.99,,,-99.99,dwt +perl,2013-03-26 05:34:00,
2013-03-25 22:39:00,47.5,19.8,24.94,WSW,240,11.0,-999.0,33,-99.99,,,-99.99,dwt +perl,2013-03-26 05:39:00,
2013-03-25 22:44:00,47.4,19.0,24.94,WSW,240,9.0,-999.0,32,-99.99,,,-99.99,dwt +perl,2013-03-26 05:44:00,
2013-03-25 22:49:00,47.4,18.3,24.95,WSW,249,10.0,-999.0,31,-99.99,,,-99.99,dwt +perl,2013-03-26 05:49:00,
2013-03-25 22:54:00,47.3,16.7,24.95,WSW,242,16.0,-999.0,29,-99.99,,,-99.99,dwt +perl,2013-03-26 05:54:00,
2013-03-25 22:59:00,47.8,16.3,24.95,SW,225,11.0,-999.0,28,-99.99,,,-99.99,dwt +perl,2013-03-26 05:59:00,
2013-03-25 23:04:00,48.0,16.5,24.95,SW,227,14.0,-999.0,28,-99.99,,,-99.99,dwt +perl,2013-03-26 06:04:00,
2013-03-25 23:09:00,48.1,15.7,24.94,WSW,240,19.0,-999.0,27,-99.99,,,-99.99,dwt +perl,2013-03-26 06:09:00,
2013-03-25 23:14:00,48.1,16.5,24.94,WSW,243,21.0,-999.0,28,-99.99,,,-99.99,dwt +perl,2013-03-26 06:14:00,
2013-03-25 23:19:00,47.7,17.0,24.94,WSW,237,15.0,-999.0,29,-99.99,,,-99.99,dwt +perl,2013-03-26 06:19:00,
2013-03-25 23:24:00,46.7,19.1,24.94,SW,229,10.0,-999.0,33,-99.99,,,-99.99,dwt +perl,2013-03-26 06:24:00,
2013-03-25 23:29:00,47.5,16.0,24.94,WSW,237,15.0,-999.0,28,-99.99,,,-99.99,dwt +perl,2013-03-26 06:29:00,
2013-03-25 23:34:00,47.6,17.7,24.94,WSW,241,15.0,-999.0,30,-99.99,,,-99.99,dwt +perl,2013-03-26 06:34:00,
2013-03-25 23:39:00,47.9,15.6,24.94,SSW,204,7.0,-999.0,27,-99.99,,,-99.99,dwt +perl,2013-03-26 06:39:00,
2013-03-25 23:44:00,47.8,16.3,24.94,SW,235,8.0,-999.0,28,-99.99,,,-99.99,dwt +perl,2013-03-26 06:44:00,
2013-03-25 23:49:00,46.7,18.4,24.94,SW,216,10.0,-999.0,32,-99.99,,,-99.99,dwt +perl,2013-03-26 06:49:00,
2013-03-25 23:54:00,46.7,19.8,24.94,SW,236,15.0,-999.0,34,-99.99,,,-99.99,dwt +perl,2013-03-26 06:54:00,
2013-03-25 23:59:00,46.9,19.3,24.94,WSW,237,9.0,-999.0,33,-99.99,,,-99.99,dwt +perl,2013-03-26 06:59:00,